DW5533 Weather Reports


Display with metric or nautical units.
time (UTC)temp
F
wind
direction
speed
MPH
gust
MPH
rain 1hr
in
rain 24hr
in
rain mn
in
humidity
%
barometer
mb
20260507140029 42 202 0.0 2.0 0.00 0.00 0.00 98 1006.6
20260507134528 42 94 0.0 0.0 0.00 0.00 0.00 98 1006.6
20260507133025 42 94 0.0 0.0 0.00 0.00 0.00 98 1006.4
20260507131534 42 94 0.0 0.0 0.00 0.00 0.00 98 1006.7
20260507130024 42 94 0.0 0.0 0.00 0.00 0.00 98 1006.8
20260507124525 42 94 0.0 0.0 0.00 0.00 0.00 98 1006.7
20260507123026 42 94 0.0 0.0 0.00 0.00 0.00 98 1006.7
20260507121522 41 94 0.0 0.0 0.00 0.00 0.00 98 1006.5
20260507120021 41 94 0.0 0.0 0.00 0.00 0.00 98 1006.5
20260507114520 40 94 0.0 0.0 0.00 0.00 0.00 98 1006.5
20260507113020 40 94 0.0 0.0 0.00 0.00 0.00 98 1006.3
20260507111520 40 94 0.0 0.0 0.00 0.00 0.00 98 1006.4
20260507110019 40 94 0.0 0.0 0.00 0.00 0.00 98 1006.5
20260507104526 40 94 0.0 0.0 0.00 0.00 0.00 98 1006.5
20260507103022 40 94 0.0 0.0 0.00 0.00 0.00 98 1006.5
20260507101529 40 94 0.0 0.0 0.00 0.00 0.00 98 1006.3
20260507100027 40 94 0.0 0.0 0.00 0.00 0.00 98 1006.2
20260507094516 39 94 0.0 0.0 0.00 0.00 0.00 98 1006.3
20260507093018 39 94 0.0 0.0 0.00 0.00 0.00 98 1006.2
20260507091533 39 94 0.0 0.0 0.00 0.00 0.00 98 1006.2
20260507090012 39 94 0.0 0.0 0.00 0.00 0.00 98 1006.3
20260507084511 39 94 0.0 0.0 0.00 0.00 0.00 98 1006.3
20260507083015 39 94 0.0 0.0 0.00 0.00 0.00 98 1006.3
20260507081508 40 94 0.0 0.0 0.00 0.00 0.00 98 1006.1
20260507080007 40 94 0.0 0.0 0.00 0.00 0.00 98 1005.8
20260507074509 41 94 0.0 0.0 0.00 0.00 0.00 98 1006.0
20260507073005 41 94 0.0 0.0 0.00 0.00 0.00 98 1005.9
20260507071505 41 94 0.0 0.0 0.00 0.00 0.00 98 1005.7
20260507070139 41 94 0.0 0.0 0.00 0.00 0.00 98 1005.8
20260507064603 41 94 0.0 0.0 0.00 0.00 0.00 98 1005.8
20260507063102 42 94 0.0 0.0 0.00 0.00 0.00 98 1005.8
20260507061559 42 94 0.0 0.0 0.00 0.00 0.00 98 1006.0
20260507060057 42 94 0.0 0.0 0.00 0.00 0.00 98 1005.9
20260507054604 42 94 0.0 0.0 0.00 0.00 0.00 98 1005.8
20260507053056 42 94 0.0 0.0 0.00 0.00 0.00 98 1006.0
20260507051554 42 94 0.0 0.0 0.00 0.00 0.00 98 1006.1
20260507050053 42 85 0.0 0.0 0.00 0.00 0.00 98 1006.0
20260507044554 42 85 0.0 0.0 0.00 0.00 0.00 98 1005.9
20260507043051 42 85 0.0 2.0 0.00 0.00 0.00 98 1006.0
20260507041550 43 343 0.0 0.0 0.00 0.00 0.00 98 1005.9
20260507040050 43 343 0.0 0.0 0.00 0.00 0.00 98 1006.0
20260507034549 43 343 0.0 0.0 0.00 0.00 0.00 98 1005.6
20260507033047 43 343 0.0 0.0 0.00 0.00 0.00 98 1006.3
20260507031546 43 343 0.0 0.0 0.00 0.00 0.00 98 1006.2
20260507030047 43 343 0.0 0.0 0.00 0.00 0.00 98 1006.3
20260507024545 43 343 0.0 0.0 0.00 0.00 0.00 98 1006.5
20260507023044 43 343 0.0 0.0 0.00 0.00 0.00 98 1006.6
20260507021543 43 343 0.0 0.0 0.00 0.00 0.00 98 1006.7
20260507020048 43 343 0.0 0.0 0.00 0.00 0.00 98 1006.7
20260507014552 43 342 0.0 3.0 0.00 0.00 0.00 98 1006.3
20260507013038 43 343 0.0 0.0 0.00 0.00 0.00 98 1006.1
20260507011537 43 343 0.0 2.0 0.00 0.00 0.00 98 1005.9
20260507010036 43 343 0.0 2.0 0.00 0.00 0.00 98 1006.1
20260507004536 43 343 0.0 0.0 0.00 0.00 0.00 98 1005.6
20260507003034 43 343 0.0 0.0 0.00 0.00 0.00 98 1005.5
20260507001535 44 343 0.0 0.0 0.00 0.00 0.00 98 1005.0
20260507000032 44 343 0.0 0.0 0.00 0.00 0.00 98 1005.0
20260506234529 44 343 0.0 0.0 0.00 0.00 0.00 98 1005.0
20260506233028 45 343 0.0 1.0 0.00 0.00 0.00 98 1004.9
20260506231527 45 343 0.0 0.0 0.00 0.00 0.00 98 1004.9
20260506230025 45 343 0.0 0.0 0.00 0.00 0.00 98 1004.8
20260506224524 45 342 0.0 0.0 0.00 0.00 0.00 98 1004.6
20260506223023 45 343 0.0 0.0 0.00 0.00 0.00 98 1004.3
20260506221524 45 343 0.0 0.0 0.00 0.00 0.00 98 1004.3
20260506220029 46 343 0.0 0.0 0.00 0.00 0.00 98 1004.0
20260506214521 46 342 0.0 3.0 0.00 0.04 0.00 98 1003.9
20260506213019 46 342 0.0 3.0 0.00 0.04 0.00 98 1003.8
20260506211516 46 344 1.0 4.0 0.00 0.04 0.00 98 1003.6
20260506210016 47 329 0.0 3.0 0.00 0.04 0.00 98 1003.4
20260506204513 47 355 0.0 3.0 0.00 0.04 0.00 98 1003.4
20260506203011 47 355 0.0 3.0 0.00 0.04 0.00 98 1003.0
20260506201510 48 355 0.0 3.0 0.00 0.04 0.00 98 1003.0
20260506200009 48 34 0.0 2.0 0.00 0.04 0.00 98 1003.0
20260506194506 48 34 0.0 1.0 0.00 0.04 0.00 98 1003.2
20260506193005 49 50 0.0 2.0 0.00 0.04 0.00 98 1003.3
20260506191508 49 50 0.0 3.0 0.00 0.04 0.00 98 1003.2
20260506190059 50 360 0.0 1.0 0.00 0.04 0.00 98 1003.4
20260506184601 51 360 0.0 0.0 0.00 0.04 0.00 98 1003.3
20260506183055 51 274 0.0 1.0 0.00 0.04 0.00 98 1003.3
20260506181552 53 320 0.0 3.0 0.00 0.04 0.00 98 1003.6
20260506180033 56 85 0.0 0.0 0.00 0.04 0.00 98 1003.9
20260506174530 56 85 0.0 0.0 0.00 0.04 0.00 98 1003.9
20260506173030 56 85 0.0 0.0 0.00 0.04 0.00 98 1003.9
20260506171542 56 85 0.0 0.0 0.00 0.04 0.00 98 1003.9
20260506170025 55 85 0.0 0.0 0.00 0.04 0.00 98 1003.9
20260506164525 55 85 0.0 0.0 0.00 0.04 0.00 98 1004.0
20260506163037 55 85 0.0 0.0 0.00 0.04 0.00 98 1004.1
20260506161521 55 85 0.0 0.0 0.00 0.04 0.00 98 1004.3
20260506160023 54 85 0.0 0.0 0.00 0.04 0.00 98 1004.6
20260506154522 54 85 0.0 0.0 0.00 0.04 0.00 98 1004.9
20260506153015 54 85 0.0 0.0 0.00 0.04 0.00 98 1005.2
20260506151514 53 85 0.0 0.0 0.00 0.04 0.00 98 1005.3
20260506150013 53 85 0.0 0.0 0.00 0.04 0.00 98 1005.5
20260506144511 53 85 0.0 0.0 0.00 0.04 0.00 98 1005.5
20260506143016 54 85 0.0 0.0 0.00 0.04 0.00 98 1005.5
20260506141510 53 85 0.0 0.0 0.00 0.04 0.00 98 1005.7